contact:dominique.lefevre@mio.osupytheas.fr, maurice.libes@osupytheas.fr, didier.mallarino@osupytheas.fr
Project:EMSO http://www.emso-fr.org/EMSO-France
Depth: 2436.0 m
Title:EMSO Ligure Ouest : Data MII capteur MICROCAT
DateTime_Computer,Latitude,Longitude,Temperature,Conductivity,Pressure,DateTime_Instrument
DateTime_Computer,Latitude,Longitude,degC,S m-1,dbar,DateTime_Instrument
2020-09-24T00:01:10Z,42.805,6.029,13.2982,4.59981,2470.147,2020-9-24T02:02:03Z
2020-09-24T00:04:14Z,42.805,6.029,13.2984,4.59981,2470.124,2020-9-24T02:05:06Z
2020-09-24T00:07:17Z,42.805,6.029,13.2975,4.59981,2470.194,2020-9-24T02:08:09Z
2020-09-24T00:10:20Z,42.805,6.029,13.2979,4.59980,2470.156,2020-9-24T02:11:12Z
2020-09-24T00:13:24Z,42.805,6.029,13.2978,4.59980,2470.156,2020-9-24T02:14:16Z
2020-09-24T00:16:27Z,42.805,6.029,13.2974,4.59981,2470.133,2020-9-24T02:17:19Z
2020-09-24T00:19:28Z,42.805,6.029,13.2981,4.59981,2470.147,2020-9-24T02:20:20Z
2020-09-24T00:22:31Z,42.805,6.029,13.2979,4.59980,2470.171,2020-9-24T02:23:23Z
2020-09-24T00:25:35Z,42.805,6.029,13.2979,4.59981,2470.156,2020-9-24T02:26:27Z
2020-09-24T00:28:38Z,42.805,6.029,13.2982,4.59980,2470.171,2020-9-24T02:29:30Z
2020-09-24T00:31:43Z,42.805,6.029,13.2981,4.59981,2470.133,2020-9-24T02:32:35Z
2020-09-24T00:34:46Z,42.805,6.029,13.2977,4.59980,2470.147,2020-9-24T02:35:39Z
2020-09-24T00:37:50Z,42.805,6.029,13.2979,4.59981,2470.133,2020-9-24T02:38:42Z
2020-09-24T00:40:53Z,42.805,6.029,13.2977,4.59981,2470.124,2020-9-24T02:41:46Z
2020-09-24T00:43:57Z,42.805,6.029,13.2979,4.59980,2470.133,2020-9-24T02:44:49Z
2020-09-24T00:46:58Z,42.805,6.029,13.2982,4.59981,2470.133,2020-9-24T02:47:51Z
2020-09-24T00:50:03Z,42.805,6.029,13.2979,4.59982,2470.147,2020-9-24T02:50:55Z
2020-09-24T00:53:07Z,42.805,6.029,13.2982,4.59981,2470.133,2020-9-24T02:53:59Z
2020-09-24T00:56:08Z,42.805,6.029,13.2978,4.59979,2470.11,2020-9-24T02:57:01Z
2020-09-24T00:59:13Z,42.805,6.029,13.2976,4.59981,2470.133,2020-9-24T03:00:06Z
2020-09-24T01:02:18Z,42.805,6.029,13.2979,4.59980,2470.156,2020-9-24T03:03:10Z
2020-09-24T01:05:19Z,42.805,6.029,13.2978,4.59981,2470.147,2020-9-24T03:06:12Z
2020-09-24T01:08:21Z,42.805,6.029,13.2979,4.59981,2470.156,2020-9-24T03:09:13Z
2020-09-24T01:11:23Z,42.805,6.029,13.2978,4.59982,2470.11,2020-9-24T03:12:15Z
2020-09-24T01:14:28Z,42.805,6.029,13.2980,4.59981,2470.156,2020-9-24T03:15:20Z
2020-09-24T01:17:33Z,42.805,6.029,13.2982,4.59981,2470.124,2020-9-24T03:18:25Z
2020-09-24T01:20:36Z,42.805,6.029,13.2980,4.59983,2470.11,2020-9-24T03:21:28Z
2020-09-24T01:23:39Z,42.805,6.029,13.2978,4.59980,2470.133,2020-9-24T03:24:32Z
2020-09-24T01:26:43Z,42.805,6.029,13.2982,4.59981,2470.133,2020-9-24T03:27:35Z
2020-09-24T01:29:46Z,42.805,6.029,13.2982,4.59980,2470.11,2020-9-24T03:30:38Z
2020-09-24T01:32:50Z,42.805,6.029,13.2982,4.59982,2470.11,2020-9-24T03:33:43Z
2020-09-24T01:35:54Z,42.805,6.029,13.2979,4.59984,2470.147,2020-9-24T03:36:46Z
2020-09-24T01:38:55Z,42.805,6.029,13.2980,4.59981,2470.147,2020-9-24T03:39:48Z
2020-09-24T01:41:59Z,42.805,6.029,13.2981,4.59981,2470.087,2020-9-24T03:42:52Z
2020-09-24T01:45:03Z,42.805,6.029,13.2982,4.59980,2470.133,2020-9-24T03:45:55Z
2020-09-24T01:48:06Z,42.805,6.029,13.2981,4.59981,2470.11,2020-9-24T03:48:59Z
2020-09-24T01:51:08Z,42.805,6.029,13.2982,4.59981,2470.11,2020-9-24T03:52:00Z
2020-09-24T01:54:13Z,42.805,6.029,13.2979,4.59981,2470.133,2020-9-24T03:55:05Z
2020-09-24T01:57:15Z,42.805,6.029,13.2981,4.59981,2470.087,2020-9-24T03:58:07Z
2020-09-24T02:00:17Z,42.805,6.029,13.2979,4.59981,2470.11,2020-9-24T04:01:10Z
2020-09-24T02:03:21Z,42.805,6.029,13.2982,4.59981,2470.11,2020-9-24T04:04:14Z
2020-09-24T02:06:24Z,42.805,6.029,13.2979,4.59981,2470.11,2020-9-24T04:07:16Z
2020-09-24T02:09:27Z,42.805,6.029,13.2977,4.59982,2470.087,2020-9-24T04:10:20Z
2020-09-24T02:12:32Z,42.805,6.029,13.2982,4.59981,2470.1,2020-9-24T04:13:24Z
2020-09-24T02:15:36Z,42.805,6.029,13.2979,4.59981,2470.087,2020-9-24T04:16:28Z
2020-09-24T02:18:39Z,42.805,6.029,13.2981,4.59982,2470.11,2020-9-24T04:19:31Z
2020-09-24T02:21:42Z,42.805,6.029,13.2981,4.59981,2470.124,2020-9-24T04:22:35Z
2020-09-24T02:24:46Z,42.805,6.029,13.2983,4.59982,2470.087,2020-9-24T04:25:38Z
2020-09-24T02:27:50Z,42.805,6.029,13.2980,4.59981,2470.11,2020-9-24T04:28:43Z
2020-09-24T02:30:54Z,42.805,6.029,13.2980,4.59981,2470.087,2020-9-24T04:31:46Z
2020-09-24T02:33:57Z,42.805,6.029,13.2981,4.59982,2470.124,2020-9-24T04:34:50Z
2020-09-24T02:37:02Z,42.805,6.029,13.2982,4.59981,2470.087,2020-9-24T04:37:54Z
2020-09-24T02:40:04Z,42.805,6.029,13.2979,4.59981,2470.087,2020-9-24T04:40:57Z
2020-09-24T02:43:08Z,42.805,6.029,13.2976,4.59981,2470.11,2020-9-24T04:44:00Z
2020-09-24T02:46:13Z,42.805,6.029,13.2980,4.59981,2470.063,2020-9-24T04:47:05Z
2020-09-24T02:49:16Z,42.805,6.029,13.2982,4.59983,2470.124,2020-9-24T04:50:09Z
2020-09-24T02:52:21Z,42.805,6.029,13.2980,4.59981,2470.087,2020-9-24T04:53:13Z
2020-09-24T02:55:25Z,42.805,6.029,13.2980,4.59983,2470.11,2020-9-24T04:56:17Z
2020-09-24T02:58:28Z,42.805,6.029,13.2980,4.59981,2470.11,2020-9-24T04:59:21Z
2020-09-24T03:01:33Z,42.805,6.029,13.2983,4.59981,2470.1,2020-9-24T05:02:25Z
2020-09-24T03:04:38Z,42.805,6.029,13.2980,4.59984,2470.1,2020-9-24T05:05:30Z
2020-09-24T03:07:42Z,42.805,6.029,13.2980,4.59982,2470.124,2020-9-24T05:08:34Z
2020-09-24T03:10:45Z,42.805,6.029,13.2982,4.59981,2470.087,2020-9-24T05:11:37Z
2020-09-24T03:13:49Z,42.805,6.029,13.2982,4.59982,2470.1,2020-9-24T05:14:42Z
2020-09-24T03:16:51Z,42.805,6.029,13.2982,4.59981,2470.087,2020-9-24T05:17:44Z
2020-09-24T03:19:56Z,42.805,6.029,13.2980,4.59981,2470.087,2020-9-24T05:20:48Z
2020-09-24T03:22:59Z,42.805,6.029,13.2984,4.59982,2470.11,2020-9-24T05:23:51Z
2020-09-24T03:26:03Z,42.805,6.029,13.2982,4.59982,2470.11,2020-9-24T05:26:55Z
2020-09-24T03:29:05Z,42.805,6.029,13.2981,4.59982,2470.087,2020-9-24T05:29:57Z
2020-09-24T03:32:10Z,42.805,6.029,13.2979,4.59983,2470.11,2020-9-24T05:33:02Z
2020-09-24T03:35:13Z,42.805,6.029,13.2984,4.59982,2470.063,2020-9-24T05:36:05Z
2020-09-24T03:38:16Z,42.805,6.029,13.2979,4.59983,2470.11,2020-9-24T05:39:08Z
2020-09-24T03:41:19Z,42.805,6.029,13.2986,4.59982,2470.11,2020-9-24T05:42:12Z
2020-09-24T03:44:24Z,42.805,6.029,13.2983,4.59983,2470.11,2020-9-24T05:45:16Z
2020-09-24T03:47:27Z,42.805,6.029,13.2982,4.59983,2470.063,2020-9-24T05:48:20Z
2020-09-24T03:50:31Z,42.805,6.029,13.2984,4.59983,2470.087,2020-9-24T05:51:23Z
2020-09-24T03:53:35Z,42.805,6.029,13.2981,4.59983,2470.087,2020-9-24T05:54:27Z
2020-09-24T03:56:38Z,42.805,6.029,13.2982,4.59982,2470.087,2020-9-24T05:57:31Z
2020-09-24T03:59:40Z,42.805,6.029,13.2982,4.59983,2470.063,2020-9-24T06:00:32Z
2020-09-24T04:02:42Z,42.805,6.029,13.2986,4.59983,2470.077,2020-9-24T06:03:35Z
2020-09-24T04:05:46Z,42.805,6.029,13.2983,4.59983,2470.087,2020-9-24T06:06:39Z
2020-09-24T04:08:49Z,42.805,6.029,13.2981,4.59984,2470.1,2020-9-24T06:09:41Z
2020-09-24T04:11:54Z,42.805,6.029,13.2979,4.59983,2470.087,2020-9-24T06:12:46Z
2020-09-24T04:14:57Z,42.805,6.029,13.2985,4.59984,2470.1,2020-9-24T06:15:50Z
2020-09-24T04:18:00Z,42.805,6.029,13.2981,4.59983,2470.1,2020-9-24T06:18:52Z
2020-09-24T04:21:03Z,42.805,6.029,13.2981,4.59983,2470.063,2020-9-24T06:21:56Z
2020-09-24T04:24:08Z,42.805,6.029,13.2982,4.59984,2470.087,2020-9-24T06:25:00Z
2020-09-24T04:27:12Z,42.805,6.029,13.2982,4.59984,2470.04,2020-9-24T06:28:04Z
2020-09-24T04:30:13Z,42.805,6.029,13.2983,4.59983,2470.1,2020-9-24T06:31:06Z
2020-09-24T04:33:17Z,42.805,6.029,13.2983,4.59984,2470.1,2020-9-24T06:34:09Z
2020-09-24T04:36:20Z,42.805,6.029,13.2982,4.59988,2470.003,2020-9-24T06:37:13Z
2020-09-24T04:39:23Z,42.805,6.029,13.2986,4.59985,2470.063,2020-9-24T06:40:16Z
2020-09-24T04:42:27Z,42.805,6.029,13.2981,4.59986,2470.1,2020-9-24T06:43:19Z
2020-09-24T04:45:29Z,42.805,6.029,13.2983,4.59985,2470.077,2020-9-24T06:46:21Z
2020-09-24T04:48:33Z,42.805,6.029,13.2984,4.59985,2470.1,2020-9-24T06:49:25Z
2020-09-24T04:51:38Z,42.805,6.029,13.2986,4.59985,2470.087,2020-9-24T06:52:30Z
2020-09-24T04:54:41Z,42.805,6.029,13.2982,4.59986,2470.063,2020-9-24T06:55:33Z
2020-09-24T04:57:44Z,42.805,6.029,13.2985,4.59986,2470.087,2020-9-24T06:58:37Z
2020-09-24T05:00:48Z,42.805,6.029,13.2983,4.59986,2470.063,2020-9-24T07:01:40Z
2020-09-24T05:03:51Z,42.805,6.029,13.2982,4.59986,2470.087,2020-9-24T07:04:44Z
2020-09-24T05:06:54Z,42.805,6.029,13.2983,4.59986,2470.087,2020-9-24T07:07:47Z
2020-09-24T05:09:59Z,42.805,6.029,13.2983,4.59986,2470.077,2020-9-24T07:10:52Z
2020-09-24T05:13:02Z,42.805,6.029,13.2982,4.59990,2470.1,2020-9-24T07:13:55Z
2020-09-24T05:16:06Z,42.805,6.029,13.2986,4.59991,2470.087,2020-9-24T07:16:58Z
2020-09-24T05:19:09Z,42.805,6.029,13.2982,4.59987,2470.04,2020-9-24T07:20:01Z
2020-09-24T05:22:12Z,42.805,6.029,13.2984,4.59986,2470.04,2020-9-24T07:23:05Z
2020-09-24T05:25:16Z,42.805,6.029,13.2983,4.59986,2470.053,2020-9-24T07:26:08Z
2020-09-24T05:28:20Z,42.805,6.029,13.2985,4.59986,2470.04,2020-9-24T07:29:12Z
2020-09-24T05:31:23Z,42.805,6.029,13.2981,4.59987,2470.077,2020-9-24T07:32:15Z
2020-09-24T05:34:26Z,42.805,6.029,13.2986,4.59986,2470.04,2020-9-24T07:35:19Z
2020-09-24T05:37:29Z,42.805,6.029,13.2983,4.59994,2470.077,2020-9-24T07:38:21Z
2020-09-24T05:40:32Z,42.805,6.029,13.2986,4.59986,2470.017,2020-9-24T07:41:24Z
2020-09-24T05:43:35Z,42.805,6.029,13.2986,4.59985,2470.077,2020-9-24T07:44:28Z
2020-09-24T05:46:39Z,42.805,6.029,13.2982,4.59987,2470.063,2020-9-24T07:47:31Z
2020-09-24T05:49:42Z,42.805,6.029,13.2986,4.59986,2470.077,2020-9-24T07:50:34Z
2020-09-24T05:52:46Z,42.805,6.029,13.2983,4.59986,2470.053,2020-9-24T07:53:38Z
2020-09-24T05:55:50Z,42.805,6.029,13.2986,4.59986,2470.077,2020-9-24T07:56:42Z
2020-09-24T05:58:53Z,42.805,6.029,13.2990,4.59986,2470.063,2020-9-24T07:59:45Z
2020-09-24T06:01:55Z,42.805,6.029,13.2986,4.59986,2470.063,2020-9-24T08:02:47Z
2020-09-24T06:04:58Z,42.805,6.029,13.2983,4.59986,2470.087,2020-9-24T08:05:50Z
2020-09-24T06:07:59Z,42.805,6.029,13.2986,4.59986,2470.077,2020-9-24T08:08:52Z
2020-09-24T06:11:00Z,42.805,6.029,13.2983,4.59987,2470.063,2020-9-24T08:11:53Z
2020-09-24T06:14:04Z,42.805,6.029,13.2982,4.59986,2470.017,2020-9-24T08:14:56Z
2020-09-24T06:17:07Z,42.805,6.029,13.2986,4.59987,2470.04,2020-9-24T08:18:00Z
2020-09-24T06:20:11Z,42.805,6.029,13.2983,4.59986,2470.026,2020-9-24T08:21:04Z
2020-09-24T06:23:14Z,42.805,6.029,13.2986,4.59986,2470.026,2020-9-24T08:24:06Z
2020-09-24T06:26:18Z,42.805,6.029,13.2990,4.59986,2470.04,2020-9-24T08:27:10Z
2020-09-24T06:29:20Z,42.805,6.029,13.2984,4.59986,2470.063,2020-9-24T08:30:12Z
2020-09-24T06:32:23Z,42.805,6.029,13.2982,4.59987,2470.077,2020-9-24T08:33:15Z
2020-09-24T06:35:26Z,42.805,6.029,13.2986,4.59986,2470.049,2020-9-24T08:36:18Z
2020-09-24T06:38:28Z,42.805,6.029,13.2983,4.59987,2470.017,2020-9-24T08:39:21Z
2020-09-24T06:41:31Z,42.805,6.029,13.2983,4.59987,2470.053,2020-9-24T08:42:24Z
2020-09-24T06:44:35Z,42.805,6.029,13.2983,4.59986,2470.053,2020-9-24T08:45:27Z
2020-09-24T06:47:38Z,42.805,6.029,13.2982,4.59987,2470.077,2020-9-24T08:48:31Z
2020-09-24T06:50:43Z,42.805,6.029,13.2983,4.59986,2470.04,2020-9-24T08:51:35Z
2020-09-24T06:53:44Z,42.805,6.029,13.2986,4.59988,2470.04,2020-9-24T08:54:37Z
2020-09-24T06:56:49Z,42.805,6.029,13.2980,4.59987,2470.053,2020-9-24T08:57:41Z
2020-09-24T06:59:53Z,42.805,6.029,13.2984,4.59987,2470.04,2020-9-24T09:00:46Z
2020-09-24T07:02:57Z,42.805,6.029,13.2983,4.59986,2470.077,2020-9-24T09:03:49Z
2020-09-24T07:06:00Z,42.805,6.029,13.2982,4.59988,2470.063,2020-9-24T09:06:52Z
2020-09-24T07:09:02Z,42.805,6.029,13.2987,4.59986,2470.1,2020-9-24T09:09:54Z
2020-09-24T07:12:06Z,42.805,6.029,13.2986,4.59986,2470.063,2020-9-24T09:12:59Z
2020-09-24T07:15:09Z,42.805,6.029,13.2985,4.59987,2470.053,2020-9-24T09:16:02Z
2020-09-24T07:18:11Z,42.805,6.029,13.2986,4.59991,2470.087,2020-9-24T09:19:03Z
2020-09-24T07:21:14Z,42.805,6.029,13.2985,4.59986,2470.053,2020-9-24T09:22:07Z
2020-09-24T07:24:17Z,42.805,6.029,13.2989,4.59987,2470.03,2020-9-24T09:25:10Z
2020-09-24T07:27:21Z,42.805,6.029,13.2986,4.59988,2470.053,2020-9-24T09:28:13Z
2020-09-24T07:30:24Z,42.805,6.029,13.2983,4.59986,2470.077,2020-9-24T09:31:16Z
2020-09-24T07:33:27Z,42.805,6.029,13.2986,4.59988,2470.053,2020-9-24T09:34:20Z
2020-09-24T07:36:29Z,42.805,6.029,13.2986,4.59986,2470.087,2020-9-24T09:37:22Z
2020-09-24T07:39:32Z,42.805,6.029,13.2984,4.59987,2470.063,2020-9-24T09:40:25Z
2020-09-24T07:42:35Z,42.805,6.029,13.2982,4.59986,2470.053,2020-9-24T09:43:28Z
2020-09-24T07:45:39Z,42.805,6.029,13.2986,4.59987,2470.063,2020-9-24T09:46:32Z
2020-09-24T07:48:42Z,42.805,6.029,13.2987,4.59987,2470.077,2020-9-24T09:49:35Z
2020-09-24T07:51:45Z,42.805,6.029,13.2986,4.59986,2470.087,2020-9-24T09:52:38Z
2020-09-24T07:54:50Z,42.805,6.029,13.2982,4.59989,2470.1,2020-9-24T09:55:43Z
2020-09-24T07:57:54Z,42.805,6.029,13.2986,4.59986,2470.087,2020-9-24T09:58:47Z
2020-09-24T08:00:58Z,42.805,6.029,13.2987,4.59987,2470.1,2020-9-24T10:01:50Z
2020-09-24T08:04:01Z,42.805,6.029,13.2986,4.59986,2470.077,2020-9-24T10:04:54Z
2020-09-24T08:07:04Z,42.805,6.029,13.2986,4.59986,2470.087,2020-9-24T10:07:57Z
2020-09-24T08:10:09Z,42.805,6.029,13.2983,4.59986,2470.077,2020-9-24T10:11:02Z
2020-09-24T08:13:13Z,42.805,6.029,13.2986,4.59989,2470.087,2020-9-24T10:14:06Z
2020-09-24T08:16:16Z,42.805,6.029,13.2990,4.59987,2470.077,2020-9-24T10:17:09Z
2020-09-24T08:19:21Z,42.805,6.029,13.2986,4.59988,2470.063,2020-9-24T10:20:14Z
2020-09-24T08:22:25Z,42.805,6.029,13.2985,4.59987,2470.04,2020-9-24T10:23:17Z
2020-09-24T08:25:27Z,42.805,6.029,13.2986,4.59987,2470.063,2020-9-24T10:26:19Z
2020-09-24T08:28:28Z,42.805,6.029,13.2985,4.59987,2470.087,2020-9-24T10:29:20Z
2020-09-24T08:31:30Z,42.805,6.029,13.2982,4.59988,2470.087,2020-9-24T10:32:22Z
2020-09-24T08:34:32Z,42.805,6.029,13.2986,4.59992,2470.087,2020-9-24T10:35:25Z
2020-09-24T08:37:36Z,42.805,6.029,13.2984,4.59987,2470.063,2020-9-24T10:38:28Z
2020-09-24T08:40:40Z,42.805,6.029,13.2985,4.59988,2470.087,2020-9-24T10:41:32Z
2020-09-24T08:43:43Z,42.805,6.029,13.2986,4.59988,2470.063,2020-9-24T10:44:36Z
2020-09-24T08:46:46Z,42.805,6.029,13.2985,4.59988,2470.087,2020-9-24T10:47:39Z
2020-09-24T08:49:50Z,42.805,6.029,13.2986,4.59988,2470.087,2020-9-24T10:50:43Z
2020-09-24T08:52:53Z,42.805,6.029,13.2989,4.59988,2470.133,2020-9-24T10:53:45Z
2020-09-24T08:55:55Z,42.805,6.029,13.2985,4.59989,2470.073,2020-9-24T10:56:47Z
2020-09-24T08:58:57Z,42.805,6.029,13.2987,4.59987,2470.087,2020-9-24T10:59:49Z
2020-09-24T09:01:58Z,42.805,6.029,13.2986,4.59988,2470.124,2020-9-24T11:02:50Z
2020-09-24T09:05:01Z,42.805,6.029,13.2989,4.59987,2470.11,2020-9-24T11:05:54Z
2020-09-24T09:08:05Z,42.805,6.029,13.2987,4.59987,2470.077,2020-9-24T11:08:57Z
2020-09-24T09:11:08Z,42.805,6.029,13.2986,4.59987,2470.133,2020-9-24T11:12:00Z
2020-09-24T09:14:11Z,42.805,6.029,13.2982,4.59987,2470.11,2020-9-24T11:15:04Z
2020-09-24T09:17:15Z,42.805,6.029,13.2986,4.59986,2470.077,2020-9-24T11:18:07Z
2020-09-24T09:20:18Z,42.805,6.029,13.2991,4.59988,2470.11,2020-9-24T11:21:10Z
2020-09-24T09:23:21Z,42.805,6.029,13.2985,4.59988,2470.1,2020-9-24T11:24:14Z
2020-09-24T09:26:24Z,42.805,6.029,13.2983,4.59988,2470.087,2020-9-24T11:27:17Z
2020-09-24T09:29:28Z,42.805,6.029,13.2983,4.59986,2470.11,2020-9-24T11:30:21Z
2020-09-24T09:32:32Z,42.805,6.029,13.2984,4.59987,2470.11,2020-9-24T11:33:24Z
2020-09-24T09:35:35Z,42.805,6.029,13.2986,4.59988,2470.087,2020-9-24T11:36:27Z
2020-09-24T09:38:38Z,42.805,6.029,13.2986,4.59986,2470.133,2020-9-24T11:39:31Z
2020-09-24T09:41:42Z,42.805,6.029,13.2983,4.59986,2470.133,2020-9-24T11:42:34Z
2020-09-24T09:44:45Z,42.805,6.029,13.2982,4.59986,2470.087,2020-9-24T11:45:37Z
2020-09-24T09:47:48Z,42.805,6.029,13.2984,4.59986,2470.11,2020-9-24T11:48:41Z
2020-09-24T09:50:53Z,42.805,6.029,13.2986,4.59988,2470.1,2020-9-24T11:51:45Z
2020-09-24T09:53:55Z,42.805,6.029,13.2983,4.59987,2470.171,2020-9-24T11:54:47Z
2020-09-24T09:56:58Z,42.805,6.029,13.2981,4.59986,2470.11,2020-9-24T11:57:50Z
2020-09-24T10:00:02Z,42.805,6.029,13.2984,4.59986,2470.171,2020-9-24T12:00:54Z
2020-09-24T10:03:02Z,42.805,6.029,13.2981,4.59990,2470.133,2020-9-24T12:03:55Z
2020-09-24T10:06:06Z,42.805,6.029,13.2983,4.59986,2470.11,2020-9-24T12:06:59Z
2020-09-24T10:09:10Z,42.805,6.029,13.2986,4.59986,2470.133,2020-9-24T12:10:02Z
2020-09-24T10:12:13Z,42.805,6.029,13.2982,4.59986,2470.147,2020-9-24T12:13:05Z
2020-09-24T10:15:16Z,42.805,6.029,13.2983,4.59985,2470.156,2020-9-24T12:16:09Z
2020-09-24T10:18:21Z,42.805,6.029,13.2983,4.59988,2470.133,2020-9-24T12:19:13Z
2020-09-24T10:21:24Z,42.805,6.029,13.2985,4.59985,2470.156,2020-9-24T12:22:16Z
2020-09-24T10:24:28Z,42.805,6.029,13.2982,4.59985,2470.147,2020-9-24T12:25:20Z
2020-09-24T10:27:30Z,42.805,6.029,13.2982,4.59984,2470.133,2020-9-24T12:28:23Z
2020-09-24T10:30:34Z,42.805,6.029,13.2985,4.59985,2470.133,2020-9-24T12:31:26Z
2020-09-24T10:33:37Z,42.805,6.029,13.2982,4.59984,2470.156,2020-9-24T12:34:29Z
2020-09-24T10:36:40Z,42.805,6.029,13.2983,4.59985,2470.133,2020-9-24T12:37:33Z
2020-09-24T10:39:43Z,42.805,6.029,13.2979,4.59985,2470.156,2020-9-24T12:40:35Z
2020-09-24T10:42:48Z,42.805,6.029,13.2978,4.59984,2470.133,2020-9-24T12:43:40Z
2020-09-24T10:45:52Z,42.805,6.029,13.2984,4.59983,2470.147,2020-9-24T12:46:45Z
2020-09-24T10:48:54Z,42.805,6.029,13.2983,4.59986,2470.156,2020-9-24T12:49:46Z
2020-09-24T10:51:58Z,42.805,6.029,13.2986,4.59985,2470.203,2020-9-24T12:52:51Z
2020-09-24T10:55:00Z,42.805,6.029,13.2985,4.59984,2470.133,2020-9-24T12:55:53Z
2020-09-24T10:58:04Z,42.805,6.029,13.2982,4.59986,2470.133,2020-9-24T12:58:56Z
2020-09-24T11:01:06Z,42.805,6.029,13.2982,4.59985,2470.171,2020-9-24T13:01:58Z
2020-09-24T11:04:09Z,42.805,6.029,13.2982,4.59984,2470.133,2020-9-24T13:05:02Z
2020-09-24T11:07:13Z,42.805,6.029,13.2982,4.59983,2470.156,2020-9-24T13:08:05Z
2020-09-24T11:10:14Z,42.805,6.029,13.2984,4.59985,2470.156,2020-9-24T13:11:07Z
2020-09-24T11:13:18Z,42.805,6.029,13.2982,4.59986,2470.133,2020-9-24T13:14:10Z
2020-09-24T11:16:21Z,42.805,6.029,13.2983,4.59985,2470.133,2020-9-24T13:17:13Z
2020-09-24T11:19:24Z,42.805,6.029,13.2983,4.59984,2470.217,2020-9-24T13:20:16Z
2020-09-24T11:22:27Z,42.805,6.029,13.2982,4.59985,2470.18,2020-9-24T13:23:20Z
2020-09-24T11:25:31Z,42.805,6.029,13.2983,4.59990,2470.143,2020-9-24T13:26:23Z
2020-09-24T11:28:34Z,42.805,6.029,13.2986,4.59985,2470.217,2020-9-24T13:29:27Z
2020-09-24T11:31:36Z,42.805,6.029,13.2981,4.59985,2470.194,2020-9-24T13:32:29Z
2020-09-24T11:34:39Z,42.805,6.029,13.2986,4.59986,2470.18,2020-9-24T13:35:31Z
2020-09-24T11:37:43Z,42.805,6.029,13.2983,4.59985,2470.171,2020-9-24T13:38:35Z
2020-09-24T11:40:47Z,42.805,6.029,13.2983,4.59986,2470.171,2020-9-24T13:41:39Z
2020-09-24T11:43:48Z,42.805,6.029,13.2982,4.59986,2470.217,2020-9-24T13:44:41Z
2020-09-24T11:46:53Z,42.805,6.029,13.2983,4.59986,2470.217,2020-9-24T13:47:45Z
2020-09-24T11:49:57Z,42.805,6.029,13.2983,4.59986,2470.171,2020-9-24T13:50:50Z
2020-09-24T11:53:01Z,42.805,6.029,13.2982,4.59985,2470.18,2020-9-24T13:53:53Z
2020-09-24T11:56:05Z,42.805,6.029,13.2981,4.59985,2470.217,2020-9-24T13:56:58Z
2020-09-24T11:59:07Z,42.805,6.029,13.2983,4.59987,2470.18,2020-9-24T14:00:00Z
2020-09-24T12:02:11Z,42.805,6.029,13.2984,4.59985,2470.194,2020-9-24T14:03:03Z
2020-09-24T12:05:15Z,42.805,6.029,13.2984,4.59986,2470.24,2020-9-24T14:06:07Z
2020-09-24T12:08:16Z,42.805,6.029,13.2980,4.59985,2470.203,2020-9-24T14:09:09Z
2020-09-24T12:11:18Z,42.805,6.029,13.2983,4.59986,2470.217,2020-9-24T14:12:10Z
2020-09-24T12:14:19Z,42.805,6.029,13.2983,4.59986,2470.217,2020-9-24T14:15:12Z
2020-09-24T12:17:24Z,42.805,6.029,13.2982,4.59986,2470.156,2020-9-24T14:18:16Z
2020-09-24T12:20:28Z,42.805,6.029,13.2983,4.59986,2470.203,2020-9-24T14:21:20Z
2020-09-24T12:23:31Z,42.805,6.029,13.2984,4.59986,2470.203,2020-9-24T14:24:23Z
2020-09-24T12:26:36Z,42.805,6.029,13.2984,4.59986,2470.217,2020-9-24T14:27:28Z
2020-09-24T12:29:40Z,42.805,6.029,13.2979,4.59986,2470.18,2020-9-24T14:30:33Z
2020-09-24T12:32:44Z,42.805,6.029,13.2985,4.59988,2470.156,2020-9-24T14:33:36Z
2020-09-24T12:35:48Z,42.805,6.029,13.2982,4.59985,2470.24,2020-9-24T14:36:41Z
2020-09-24T12:38:51Z,42.805,6.029,13.2982,4.59986,2470.203,2020-9-24T14:39:44Z
2020-09-24T12:41:56Z,42.805,6.029,13.2982,4.59988,2470.18,2020-9-24T14:42:48Z
2020-09-24T12:45:00Z,42.805,6.029,13.2984,4.59986,2470.18,2020-9-24T14:45:52Z
2020-09-24T12:48:04Z,42.805,6.029,13.2985,4.59986,2470.18,2020-9-24T14:48:57Z
2020-09-24T12:51:09Z,42.805,6.029,13.2984,4.59986,2470.203,2020-9-24T14:52:01Z
2020-09-24T12:54:10Z,42.805,6.029,13.2983,4.59986,2470.194,2020-9-24T14:55:02Z
2020-09-24T12:57:12Z,42.805,6.029,13.2990,4.59987,2470.18,2020-9-24T14:58:05Z
2020-09-24T13:00:17Z,42.805,6.029,13.2978,4.59986,2470.171,2020-9-24T15:01:09Z
2020-09-24T13:03:20Z,42.805,6.029,13.2985,4.59988,2470.18,2020-9-24T15:04:12Z
2020-09-24T13:06:21Z,42.805,6.029,13.2985,4.59990,2470.18,2020-9-24T15:07:13Z
2020-09-24T13:09:23Z,42.805,6.029,13.2981,4.59989,2470.194,2020-9-24T15:10:15Z
2020-09-24T13:12:28Z,42.805,6.029,13.2982,4.59988,2470.217,2020-9-24T15:13:20Z
2020-09-24T13:15:29Z,42.805,6.029,13.2982,4.59986,2470.203,2020-9-24T15:16:22Z
2020-09-24T13:18:32Z,42.805,6.029,13.2982,4.59986,2470.156,2020-9-24T15:19:24Z
2020-09-24T13:21:33Z,42.805,6.029,13.2983,4.59988,2470.18,2020-9-24T15:22:26Z
2020-09-24T13:24:36Z,42.805,6.029,13.2983,4.59986,2470.203,2020-9-24T15:25:28Z
2020-09-24T13:27:38Z,42.805,6.029,13.2982,4.59986,2470.194,2020-9-24T15:28:30Z
2020-09-24T13:30:41Z,42.805,6.029,13.2983,4.59988,2470.18,2020-9-24T15:31:33Z
2020-09-24T13:33:44Z,42.805,6.029,13.2982,4.59986,2470.217,2020-9-24T15:34:37Z
2020-09-24T13:36:47Z,42.805,6.029,13.2983,4.59986,2470.156,2020-9-24T15:37:40Z
2020-09-24T13:39:48Z,42.805,6.029,13.2981,4.59986,2470.203,2020-9-24T15:40:41Z
2020-09-24T13:42:53Z,42.805,6.029,13.2986,4.59986,2470.217,2020-9-24T15:43:45Z
2020-09-24T13:45:57Z,42.805,6.029,13.2986,4.59986,2470.203,2020-9-24T15:46:49Z
2020-09-24T13:48:59Z,42.805,6.029,13.2983,4.59987,2470.18,2020-9-24T15:49:51Z
2020-09-24T13:52:01Z,42.805,6.029,13.2983,4.59988,2470.171,2020-9-24T15:52:53Z
2020-09-24T13:55:02Z,42.805,6.029,13.2983,4.59986,2470.203,2020-9-24T15:55:54Z
2020-09-24T13:58:07Z,42.805,6.029,13.2985,4.59986,2470.217,2020-9-24T15:58:59Z
2020-09-24T14:01:09Z,42.805,6.029,13.2983,4.59987,2470.171,2020-9-24T16:02:01Z
2020-09-24T14:04:13Z,42.805,6.029,13.2978,4.59986,2470.217,2020-9-24T16:05:06Z
2020-09-24T14:07:16Z,42.805,6.029,13.2982,4.59986,2470.156,2020-9-24T16:08:08Z
2020-09-24T14:10:20Z,42.805,6.029,13.2983,4.59987,2470.203,2020-9-24T16:11:12Z
2020-09-24T14:13:24Z,42.805,6.029,13.2984,4.59987,2470.18,2020-9-24T16:14:17Z
2020-09-24T14:16:26Z,42.805,6.029,13.2986,4.59986,2470.156,2020-9-24T16:17:18Z
2020-09-24T14:19:31Z,42.805,6.029,13.2982,4.59986,2470.217,2020-9-24T16:20:23Z
2020-09-24T14:22:34Z,42.805,6.029,13.2983,4.59986,2470.18,2020-9-24T16:23:26Z
2020-09-24T14:25:38Z,42.805,6.029,13.2986,4.59986,2470.194,2020-9-24T16:26:31Z
2020-09-24T14:28:41Z,42.805,6.029,13.2983,4.59986,2470.18,2020-9-24T16:29:34Z
2020-09-24T14:31:43Z,42.805,6.029,13.2983,4.59987,2470.166,2020-9-24T16:32:35Z
2020-09-24T14:34:45Z,42.805,6.029,13.2987,4.59987,2470.203,2020-9-24T16:35:37Z
2020-09-24T14:37:46Z,42.805,6.029,13.2985,4.59986,2470.203,2020-9-24T16:38:39Z
2020-09-24T14:40:48Z,42.805,6.029,13.2982,4.59987,2470.217,2020-9-24T16:41:40Z
2020-09-24T14:43:53Z,42.805,6.029,13.2983,4.59986,2470.156,2020-9-24T16:44:45Z
2020-09-24T14:46:57Z,42.805,6.029,13.2982,4.59984,2470.194,2020-9-24T16:47:50Z
2020-09-24T14:50:02Z,42.805,6.029,13.2983,4.59987,2470.194,2020-9-24T16:50:54Z
2020-09-24T14:53:05Z,42.805,6.029,13.2982,4.59986,2470.18,2020-9-24T16:53:57Z
2020-09-24T14:56:09Z,42.805,6.029,13.2982,4.59986,2470.217,2020-9-24T16:57:01Z
2020-09-24T14:59:10Z,42.805,6.029,13.2983,4.59986,2470.18,2020-9-24T17:00:02Z
2020-09-24T15:02:14Z,42.805,6.029,13.2983,4.59986,2470.171,2020-9-24T17:03:07Z
2020-09-24T15:05:19Z,42.805,6.029,13.2983,4.59986,2470.156,2020-9-24T17:06:12Z
2020-09-24T15:08:23Z,42.805,6.029,13.2983,4.59986,2470.18,2020-9-24T17:09:15Z
2020-09-24T15:11:26Z,42.805,6.029,13.2981,4.59986,2470.194,2020-9-24T17:12:19Z
2020-09-24T15:14:28Z,42.805,6.029,13.2979,4.59986,2470.203,2020-9-24T17:15:21Z